When you browse on this site, cookies collect data to enhance your experience and personalize the content and advertising you see.
Visit our Privacy Policy to learn more. By continuing to use the site, you agree to this use of cookies and data.
  • In Hungary
  • List of Countries
  • For 7 days
  • Water Temperature
  • Satellite Maps
  • Weather Map
  • News
  • Weather Widgets
  • user-avatar
    Login

    Hourly Weather Ladek Zdroj

    Today, 25 June, Tuesday

    Time Temperature Precipitation Wind Pressure Humidity
    00:00 +16°C° 0 mm 1 mps 726 mmHg 86%
    01:00 +15°C° 0 mm 1 mps 726 mmHg 88%
    02:00 +15°C° 0 mm 1 mps 726 mmHg 89%
    03:00 +15°C° 0 mm 1 mps 726 mmHg 91%
    04:00 +15°C° 0 mm 1 mps 725 mmHg 92%
    05:00 +18°C° 0 mm 1 mps 726 mmHg 88%
    06:00 +20°C° 0 mm 1 mps 726 mmHg 83%
    07:00 +22°C° 0 mm 1 mps 727 mmHg 77%
    08:00 +24°C° 0 mm 1 mps 727 mmHg 72%
    09:00 +25°C° 0 mm 1 mps 727 mmHg 67%
    10:00 +27°C° 0 mm 1 mps 727 mmHg 62%
    11:00 +28°C° 0 mm 2 mps 727 mmHg 60%
    12:00 +29°C° 0 mm 2 mps 727 mmHg 58%
    13:00 +30°C° 0 mm 2 mps 727 mmHg 57%
    14:00 +30°C° 0 mm 2 mps 727 mmHg 57%
    15:00 +30°C° 0 mm 2 mps 727 mmHg 58%
    16:00 +30°C° 0 mm 2 mps 726 mmHg 59%
    17:00 +28°C° 0 mm 2 mps 726 mmHg 65%
    18:00 +27°C° 0 mm 2 mps 726 mmHg 71%
    19:00 +26°C° 0 mm 1 mps 726 mmHg 77%
    20:00 +24°C° 0 mm 1 mps 726 mmHg 80%
    21:00 +23°C° 0 mm 2 mps 726 mmHg 82%
    22:00 +21°C° 0 mm 2 mps 726 mmHg 85%
    23:00 +20°C° 0 mm 2 mps 726 mmHg 86%

    Tomorrow, 26 June, Wednesday

    Time Temperature Precipitation Wind Pressure Humidity
    00:00 +20°C° 0 mm 2 mps 726 mmHg 87%
    01:00 +20°C° 0 mm 2 mps 726 mmHg 89%
    02:00 +19°C° 0 mm 2 mps 726 mmHg 90%
    03:00 +19°C° 0 mm 2 mps 726 mmHg 91%
    04:00 +19°C° 0 mm 2 mps 726 mmHg 92%
    05:00 +21°C° 0 mm 2 mps 726 mmHg 86%
    06:00 +24°C° 0 mm 2 mps 726 mmHg 79%
    07:00 +26°C° 0 mm 3 mps 726 mmHg 73%
    08:00 +27°C° 0 mm 3 mps 726 mmHg 69%
    09:00 +28°C° 0 mm 3 mps 726 mmHg 64%
    10:00 +29°C° 0 mm 4 mps 726 mmHg 60%
    11:00 +30°C° 0 mm 4 mps 726 mmHg 59%
    12:00 +30°C° 0 mm 4 mps 726 mmHg 58%
    13:00 +32°C° 0 mm 4 mps 726 mmHg 56%
    14:00 +32°C° 0 mm 4 mps 726 mmHg 58%
    15:00 +31°C° 0 mm 3 mps 725 mmHg 59%
    16:00 +31°C° 0 mm 3 mps 725 mmHg 60%
    17:00 +30°C° 0 mm 3 mps 724 mmHg 66%
    18:00 +29°C° 0 mm 2 mps 724 mmHg 71%
    19:00 +28°C° 0 mm 2 mps 724 mmHg 76%
    20:00 +26°C° 0.2 mm 2 mps 724 mmHg 79%
    21:00 +25°C° 0.2 mm 2 mps 724 mmHg 81%
    22:00 +24°C° 0.2 mm 2 mps 724 mmHg 84%
    23:00 +23°C° 0.1 mm 2 mps 724 mmHg 85%

    Day after tomorrow, 27 June, Thursday

    Time Temperature Precipitation Wind Pressure Humidity
    00:00 +23°C° 0.1 mm 1 mps 724 mmHg 87%
    01:00 +23°C° 0.1 mm 1 mps 724 mmHg 88%
    02:00 +22°C° 0.3 mm 1 mps 724 mmHg 90%
    03:00 +21°C° 0.3 mm 1 mps 723 mmHg 93%
    04:00 +20°C° 0.3 mm 2 mps 723 mmHg 95%
    05:00 +20°C° 0.2 mm 2 mps 723 mmHg 93%
    06:00 +20°C° 0.2 mm 2 mps 724 mmHg 90%
    07:00 +21°C° 0.2 mm 3 mps 724 mmHg 88%
    08:00 +21°C° 0 mm 3 mps 724 mmHg 81%
    09:00 +21°C° 0 mm 4 mps 724 mmHg 74%
    10:00 +21°C° 0 mm 4 mps 724 mmHg 66%
    11:00 +22°C° 0 mm 4 mps 724 mmHg 59%
    12:00 +22°C° 0 mm 5 mps 724 mmHg 51%
    13:00 +23°C° 0 mm 5 mps 724 mmHg 44%
    14:00 +23°C° 0 mm 5 mps 724 mmHg 46%
    15:00 +22°C° 0 mm 5 mps 724 mmHg 47%
    16:00 +22°C° 0 mm 5 mps 723 mmHg 49%
    17:00 +21°C° 0 mm 4 mps 723 mmHg 55%
    18:00 +20°C° 0 mm 4 mps 723 mmHg 61%
    19:00 +18°C° 0 mm 3 mps 723 mmHg 67%
    20:00 +17°C° 0 mm 3 mps 723 mmHg 69%
    21:00 +16°C° 0 mm 2 mps 723 mmHg 71%
    22:00 +14°C° 0 mm 2 mps 723 mmHg 73%
    23:00 +14°C° 0 mm 2 mps 723 mmHg 76%

    28 June, Friday

    Time Temperature Precipitation Wind Pressure Humidity
    00:00 +14°C° 0 mm 2 mps 723 mmHg 79%
    01:00 +13°C° 0 mm 2 mps 724 mmHg 82%
    02:00 +13°C° 0.1 mm 2 mps 723 mmHg 86%
    03:00 +13°C° 0.1 mm 2 mps 723 mmHg 90%
    04:00 +13°C° 0.1 mm 2 mps 723 mmHg 94%
    05:00 +14°C° 0.1 mm 2 mps 724 mmHg 91%
    06:00 +15°C° 0.1 mm 2 mps 724 mmHg 88%
    07:00 +16°C° 0.1 mm 2 mps 724 mmHg 85%
    08:00 +17°C° 0.2 mm 3 mps 724 mmHg 80%
    09:00 +18°C° 0.2 mm 3 mps 724 mmHg 76%
    10:00 +19°C° 0.2 mm 3 mps 724 mmHg 71%
    11:00 +20°C° 0.2 mm 3 mps 724 mmHg 69%
    12:00 +20°C° 0.2 mm 4 mps 724 mmHg 68%
    13:00 +21°C° 0.2 mm 4 mps 724 mmHg 66%
    14:00 +21°C° 0.2 mm 4 mps 724 mmHg 67%
    15:00 +20°C° 0.2 mm 4 mps 724 mmHg 69%
    16:00 +20°C° 0.2 mm 4 mps 723 mmHg 70%
    17:00 +20°C° 0.1 mm 4 mps 723 mmHg 75%
    18:00 +19°C° 0.1 mm 3 mps 724 mmHg 79%
    19:00 +18°C° 0.1 mm 2 mps 724 mmHg 83%
    20:00 +17°C° 0 mm 2 mps 724 mmHg 85%
    21:00 +15°C° 0 mm 2 mps 724 mmHg 88%
    22:00 +14°C° 0 mm 2 mps 724 mmHg 90%
    23:00 +13°C° 0 mm 1 mps 724 mmHg 89%

    29 June, Saturday

    Time Temperature Precipitation Wind Pressure Humidity
    00:00 +12°C° 0 mm 1 mps 724 mmHg 89%
    01:00 +11°C° 0 mm 1 mps 724 mmHg 89%
    02:00 +11°C° 0 mm 1 mps 724 mmHg 89%
    03:00 +11°C° 0 mm 1 mps 724 mmHg 89%
    04:00 +9°C° 0 mm 0 mps 724 mmHg 88%
    05:00 +11°C° 0 mm 0 mps 725 mmHg 81%
    06:00 +13°C° 0 mm 0 mps 725 mmHg 73%
    07:00 +16°C° 0 mm 0 mps 725 mmHg 65%
    08:00 +19°C° 0 mm 1 mps 725 mmHg 60%
    09:00 +20°C° 0 mm 1 mps 725 mmHg 56%
    10:00 +21°C° 0 mm 2 mps 726 mmHg 51%
    11:00 +21°C° 0 mm 2 mps 725 mmHg 49%
    12:00 +23°C° 0 mm 2 mps 725 mmHg 48%
    13:00 +24°C° 0 mm 2 mps 725 mmHg 46%
    14:00 +24°C° 0 mm 1 mps 724 mmHg 47%
    15:00 +24°C° 0 mm 1 mps 724 mmHg 47%
    16:00 +24°C° 0 mm 1 mps 724 mmHg 48%
    17:00 +22°C° 0 mm 1 mps 724 mmHg 55%
    18:00 +21°C° 0 mm 1 mps 723 mmHg 63%
    19:00 +20°C° 0 mm 1 mps 723 mmHg 71%
    20:00 +19°C° 0 mm 1 mps 723 mmHg 74%
    21:00 +16°C° 0 mm 1 mps 723 mmHg 76%
    22:00 +15°C° 0 mm 2 mps 723 mmHg 79%
    23:00 +15°C° 0 mm 2 mps 723 mmHg 80%

    30 June, Sunday

    Time Temperature Precipitation Wind Pressure Humidity
    00:00 +15°C° 0 mm 2 mps 723 mmHg 81%
    01:00 +14°C° 0 mm 2 mps 722 mmHg 83%
    02:00 +14°C° 0 mm 2 mps 722 mmHg 82%
    03:00 +14°C° 0 mm 2 mps 722 mmHg 81%
    04:00 +14°C° 0 mm 2 mps 722 mmHg 80%
    05:00 +16°C° 0 mm 2 mps 722 mmHg 74%
    06:00 +18°C° 0 mm 2 mps 722 mmHg 69%
    07:00 +20°C° 0 mm 2 mps 722 mmHg 63%
    08:00 +21°C° 0 mm 3 mps 722 mmHg 60%
    09:00 +24°C° 0 mm 3 mps 722 mmHg 56%
    10:00 +25°C° 0 mm 3 mps 722 mmHg 52%
    11:00 +26°C° 0 mm 4 mps 722 mmHg 52%
    12:00 +27°C° 0 mm 4 mps 722 mmHg 51%
    13:00 +28°C° 0 mm 4 mps 721 mmHg 51%
    14:00 +27°C° 0 mm 4 mps 721 mmHg 53%
    15:00 +27°C° 0 mm 5 mps 721 mmHg 56%
    16:00 +27°C° 0 mm 5 mps 720 mmHg 59%
    17:00 +26°C° 0 mm 4 mps 720 mmHg 64%
    18:00 +25°C° 0 mm 4 mps 720 mmHg 70%
    19:00 +24°C° 0 mm 3 mps 719 mmHg 75%
    20:00 +22°C° 0 mm 4 mps 719 mmHg 77%
    21:00 +21°C° 0 mm 4 mps 719 mmHg 80%
    22:00 +20°C° 0 mm 4 mps 719 mmHg 82%
    23:00 +20°C° 0 mm 4 mps 719 mmHg 82%
    Show more